| time (UTC) | temp F | wind direction | speed MPH | gust MPH | rain 1hr in | rain 24hr in | rain mn in | humidity % | barometer mb |
| 20260508104509 | 55 | 0.0 | 0.0 | 0.00 | 0.00 | 0.00 | 93 | 1021.1 | |
| 20260508103002 | 55 | 0.0 | 0.0 | 0.00 | 0.00 | 0.00 | 93 | 1021.2 | |
| 20260508101600 | 55 | 0.0 | 0.0 | 0.00 | 0.00 | 0.00 | 93 | 1021.2 | |
| 20260508100054 | 55 | 0.0 | 0.0 | 0.00 | 0.00 | 0.00 | 92 | 1021.1 | |
| 20260508094609 | 56 | 0.0 | 0.0 | 0.00 | 0.00 | 0.00 | 92 | 1021.0 | |
| 20260508093046 | 56 | 0.0 | 0.0 | 0.00 | 0.00 | 0.00 | 92 | 1021.0 | |
| 20260508091543 | 56 | 0.0 | 0.0 | 0.00 | 0.00 | 0.00 | 91 | 1021.1 | |
| 20260508090038 | 56 | 0.0 | 0.0 | 0.00 | 0.00 | 0.00 | 91 | 1021.1 | |
| 20260508084533 | 56 | 0.0 | 0.0 | 0.00 | 0.00 | 0.00 | 91 | 1021.3 | |
| 20260508083029 | 56 | 0.0 | 0.0 | 0.00 | 0.00 | 0.00 | 91 | 1021.5 | |
| 20260508081553 | 56 | 0.0 | 0.0 | 0.00 | 0.00 | 0.00 | 91 | 1021.6 | |
| 20260508080020 | 56 | 0.0 | 0.0 | 0.00 | 0.00 | 0.00 | 91 | 1021.6 | |
| 20260508074516 | 56 | 0.0 | 0.0 | 0.00 | 0.00 | 0.00 | 91 | 1021.7 | |
| 20260508073011 | 57 | 0.0 | 0.0 | 0.00 | 0.00 | 0.00 | 90 | 1021.9 | |
| 20260508071516 | 57 | 0.0 | 0.0 | 0.00 | 0.00 | 0.00 | 91 | 1022.0 | |
| 20260508070005 | 57 | 0.0 | 0.0 | 0.00 | 0.00 | 0.00 | 90 | 1022.0 | |
| 20260508064558 | 57 | 0.0 | 0.0 | 0.00 | 0.00 | 0.00 | 90 | 1022.1 | |
| 20260508063104 | 57 | 0.0 | 0.0 | 0.00 | 0.00 | 0.00 | 90 | 1022.2 | |
| 20260508061555 | 57 | 0.0 | 0.0 | 0.00 | 0.00 | 0.00 | 90 | 1022.2 | |
| 20260508060052 | 57 | 0.0 | 0.0 | 0.00 | 0.00 | 0.00 | 90 | 1022.1 | |
| 20260508054541 | 57 | 0.0 | 0.0 | 0.00 | 0.00 | 0.00 | 88 | 1022.1 | |
| 20260508053040 | 57 | 0.0 | 0.0 | 0.00 | 0.00 | 0.00 | 87 | 1022.1 | |
| 20260508051534 | 58 | 0.0 | 0.0 | 0.00 | 0.00 | 0.00 | 86 | 1022.0 | |
| 20260508050027 | 58 | 0.0 | 0.0 | 0.00 | 0.00 | 0.00 | 85 | 1022.0 | |
| 20260508044528 | 59 | 0.0 | 0.0 | 0.00 | 0.00 | 0.00 | 84 | 1021.9 | |
| 20260508043021 | 59 | 0.0 | 0.0 | 0.00 | 0.00 | 0.00 | 83 | 1021.8 | |
| 20260508041514 | 60 | 0.0 | 0.0 | 0.00 | 0.00 | 0.00 | 82 | 1021.5 | |
| 20260508040010 | 61 | 0.0 | 0.0 | 0.00 | 0.00 | 0.00 | 81 | 1021.5 | |
| 20260508034506 | 61 | 0.0 | 0.0 | 0.00 | 0.00 | 0.00 | 79 | 1021.3 | |
| 20260508033001 | 62 | 0.0 | 0.0 | 0.00 | 0.00 | 0.00 | 77 | 1021.1 | |
| 20260508031558 | 63 | 0.0 | 0.0 | 0.00 | 0.00 | 0.00 | 76 | 1021.0 | |
| 20260508030054 | 64 | 0.0 | 0.0 | 0.00 | 0.00 | 0.00 | 74 | 1020.7 | |
| 20260508024552 | 65 | 0.0 | 0.0 | 0.00 | 0.00 | 0.00 | 72 | 1020.5 | |
| 20260508023044 | 66 | 0.0 | 0.0 | 0.00 | 0.00 | 0.00 | 70 | 1020.4 | |
| 20260508021540 | 67 | 0.0 | 0.0 | 0.00 | 0.00 | 0.00 | 69 | 1020.3 | |
| 20260508020035 | 68 | 0.0 | 0.0 | 0.00 | 0.00 | 0.00 | 67 | 1020.2 | |
| 20260508014539 | 69 | 0.0 | 0.0 | 0.00 | 0.00 | 0.00 | 66 | 1020.3 | |
| 20260508013027 | 69 | 0.0 | 0.0 | 0.00 | 0.00 | 0.00 | 64 | 1020.1 | |
| 20260508011523 | 70 | 0.0 | 0.0 | 0.00 | 0.00 | 0.00 | 63 | 1020.2 | |
| 20260508010028 | 71 | 0.0 | 0.0 | 0.00 | 0.00 | 0.00 | 62 | 1020.3 | |
| 20260508004514 | 72 | 0.0 | 0.0 | 0.00 | 0.00 | 0.00 | 62 | 1020.2 | |
| 20260508003012 | 72 | 0.0 | 0.0 | 0.00 | 0.00 | 0.00 | 61 | 1020.2 | |
| 20260508001506 | 73 | 0.0 | 0.0 | 0.00 | 0.00 | 0.00 | 60 | 1020.1 | |
| 20260508000100 | 73 | 0.0 | 0.0 | 0.00 | 0.00 | 0.00 | 60 | 1020.1 | |
| 20260507234556 | 73 | 0.0 | 0.0 | 0.00 | 0.00 | 0.00 | 58 | 1020.1 | |
| 20260507233052 | 74 | 0.0 | 0.0 | 0.00 | 0.00 | 0.00 | 58 | 1020.0 | |
| 20260507231551 | 75 | 0.0 | 0.0 | 0.00 | 0.00 | 0.00 | 56 | 1020.0 | |
| 20260507230049 | 74 | 0.0 | 0.0 | 0.00 | 0.00 | 0.00 | 56 | 1020.0 | |
| 20260507224543 | 75 | 0.0 | 0.0 | 0.00 | 0.00 | 0.00 | 55 | 1020.1 | |
| 20260507223035 | 76 | 0.0 | 0.0 | 0.00 | 0.00 | 0.00 | 55 | 1020.2 | |
| 20260507221536 | 76 | 0.0 | 0.0 | 0.00 | 0.00 | 0.00 | 55 | 1020.2 | |
| 20260507220025 | 77 | 0.0 | 0.0 | 0.00 | 0.00 | 0.00 | 53 | 1020.3 | |
| 20260507214521 | 76 | 0.0 | 0.0 | 0.00 | 0.00 | 0.00 | 53 | 1020.5 | |
| 20260507213017 | 77 | 0.0 | 0.0 | 0.00 | 0.00 | 0.00 | 52 | 1020.6 | |
| 20260507211519 | 78 | 0.0 | 0.0 | 0.00 | 0.00 | 0.00 | 52 | 1020.7 | |
| 20260507210008 | 78 | 0.0 | 0.0 | 0.00 | 0.00 | 0.00 | 50 | 1020.8 | |
| 20260507204505 | 77 | 0.0 | 0.0 | 0.00 | 0.00 | 0.00 | 50 | 1021.0 | |
| 20260507203111 | 76 | 0.0 | 0.0 | 0.00 | 0.00 | 0.00 | 50 | 1021.0 | |
| 20260507201600 | 76 | 0.0 | 0.0 | 0.00 | 0.00 | 0.00 | 50 | 1021.0 | |
| 20260507200105 | 76 | 0.0 | 0.0 | 0.00 | 0.00 | 0.00 | 49 | 1021.1 | |
| 20260507194547 | 76 | 0.0 | 0.0 | 0.00 | 0.00 | 0.00 | 51 | 1021.2 | |
| 20260507193047 | 75 | 0.0 | 0.0 | 0.00 | 0.00 | 0.00 | 51 | 1021.4 | |
| 20260507191538 | 74 | 0.0 | 0.0 | 0.00 | 0.00 | 0.00 | 53 | 1021.5 | |
| 20260507190033 | 74 | 0.0 | 0.0 | 0.00 | 0.00 | 0.00 | 55 | 1021.7 | |
| 20260507184529 | 73 | 0.0 | 0.0 | 0.00 | 0.00 | 0.00 | 55 | 1021.9 | |
| 20260507183026 | 72 | 0.0 | 0.0 | 0.00 | 0.00 | 0.00 | 58 | 1021.9 | |
| 20260507181525 | 71 | 0.0 | 0.0 | 0.00 | 0.00 | 0.00 | 59 | 1021.9 | |
| 20260507180023 | 70 | 0.0 | 0.0 | 0.00 | 0.00 | 0.00 | 60 | 1022.1 | |
| 20260507174514 | 69 | 0.0 | 0.0 | 0.00 | 0.00 | 0.00 | 60 | 1022.2 | |
| 20260507173019 | 69 | 0.0 | 0.0 | 0.00 | 0.00 | 0.00 | 60 | 1022.1 | |
| 20260507171505 | 68 | 0.0 | 0.0 | 0.00 | 0.00 | 0.00 | 63 | 1022.4 | |
| 20260507170103 | 67 | 0.0 | 0.0 | 0.00 | 0.00 | 0.00 | 64 | 1022.5 | |
| 20260507164601 | 66 | 0.0 | 0.0 | 0.00 | 0.00 | 0.00 | 67 | 1022.6 | |
| 20260507163049 | 65 | 0.0 | 0.0 | 0.00 | 0.00 | 0.00 | 69 | 1022.8 | |
| 20260507161545 | 63 | 0.0 | 0.0 | 0.00 | 0.00 | 0.00 | 71 | 1022.7 | |
| 20260507160041 | 63 | 0.0 | 0.0 | 0.00 | 0.00 | 0.00 | 71 | 1022.7 | |
| 20260507154540 | 62 | 0.0 | 0.0 | 0.00 | 0.00 | 0.00 | 72 | 1022.7 | |
| 20260507153033 | 62 | 0.0 | 0.0 | 0.00 | 0.00 | 0.00 | 72 | 1022.6 | |
| 20260507151528 | 62 | 0.0 | 0.0 | 0.00 | 0.00 | 0.00 | 73 | 1022.5 | |
| 20260507150026 | 60 | 0.0 | 0.0 | 0.00 | 0.00 | 0.00 | 74 | 1022.5 | |
| 20260507144524 | 60 | 0.0 | 0.0 | 0.00 | 0.00 | 0.00 | 76 | 1022.5 | |
| 20260507143015 | 58 | 0.0 | 0.0 | 0.00 | 0.00 | 0.00 | 80 | 1022.5 | |
| 20260507141510 | 54 | 0.0 | 0.0 | 0.00 | 0.00 | 0.00 | 88 | 1022.5 | |
| 20260507140006 | 51 | 0.0 | 0.0 | 0.00 | 0.00 | 0.00 | 91 | 1022.4 | |
| 20260507134502 | 50 | 0.0 | 0.0 | 0.00 | 0.00 | 0.00 | 91 | 1022.5 | |
| 20260507133132 | 49 | 0.0 | 0.0 | 0.00 | 0.00 | 0.00 | 90 | 1022.4 | |
| 20260507131554 | 49 | 0.0 | 0.0 | 0.00 | 0.00 | 0.00 | 91 | 1022.3 | |
| 20260507130104 | 49 | 0.0 | 0.0 | 0.00 | 0.00 | 0.00 | 91 | 1022.2 | |
| 20260507124544 | 49 | 0.0 | 0.0 | 0.00 | 0.00 | 0.00 | 89 | 1022.2 | |
| 20260507123040 | 49 | 0.0 | 0.0 | 0.00 | 0.00 | 0.00 | 89 | 1022.1 | |
| 20260507121535 | 49 | 0.0 | 0.0 | 0.00 | 0.00 | 0.00 | 89 | 1021.9 | |
| 20260507120033 | 49 | 0.0 | 0.0 | 0.00 | 0.00 | 0.00 | 89 | 1021.9 | |
| 20260507114526 | 50 | 0.0 | 0.0 | 0.00 | 0.00 | 0.00 | 89 | 1021.8 | |
| 20260507113023 | 50 | 0.0 | 0.0 | 0.00 | 0.00 | 0.00 | 88 | 1022.0 | |
| 20260507111517 | 50 | 0.0 | 0.0 | 0.00 | 0.00 | 0.00 | 89 | 1022.0 | |
| 20260507110013 | 50 | 0.0 | 0.0 | 0.00 | 0.00 | 0.00 | 89 | 1022.1 |